Theta_e
305 299 296 299 300 297 295 292 293 295 299 296 294 296 297 301 298 296 296 297 308 314 319 320 321 323 321 322 323 324 324 326 325 322 318 316 317 315 316 319 321 321 322 321
299 295 299 300 299 298 295 294 292 297 297 298 296 295 298 300 300 300 300 298 298 310 314 319 320 321 322 322 322 323 323 325 325 326 322 319 317 317 319 320 321 323 322 322
295 296 300 300 298 296 295 293 294 295 292 297 294 293 294 299 300 302 302 303 300 303 311 316 318 320 322 321 321 322 323 324 325 326 323 318 317 316 316 317 319 322 323 322
297 301 298 297 296 297 292 298 298 296 291 290 296 289 291 296 300 301 303 302 301 300 306 314 317 318 321 321 323 323 324 324 324 325 324 322 320 318 320 320 320 321 322 323
295 296 296 294 296 299 293 300 297 294 291 291 289 288 290 294 294 298 301 302 302 303 301 310 314 319 321 323 321 321 321 323 324 323 323 323 322 322 319 318 318 320 321 322
298 299 299 298 300 301 298 295 293 292 292 287 290 290 290 292 295 297 300 302 305 303 299 303 313 317 319 322 321 319 315 319 322 322 323 321 320 320 317 317 319 320 323 322
296 295 297 300 295 297 297 294 283 284 284 282 288 287 293 294 297 298 300 300 302 303 301 299 303 311 315 316 319 320 319 315 317 319 321 321 321 320 319 319 320 320 321 321
289 285 294 298 296 293 295 294 282 277 278 281 285 284 289 298 303 300 300 300 299 299 299 299 298 304 313 316 318 320 321 320 315 317 318 320 321 320 320 321 321 322 322 323
289 289 297 296 296 298 294 291 291 282 273 278 282 285 291 295 294 297 298 298 297 296 295 296 298 299 306 311 317 319 320 322 321 317 317 317 319 319 320 321 322 323 323 323
294 287 294 295 297 296 296 297 287 283 274 274 280 281 285 289 294 295 294 293 293 294 293 294 294 296 300 307 310 314 317 320 322 322 321 318 317 319 320 321 321 322 323 320
295 291 288 293 294 293 292 292 290 290 283 278 275 280 289 292 297 295 294 294 294 293 293 294 294 294 294 295 301 307 310 312 314 316 320 321 321 319 319 320 321 322 322 318
297 292 286 290 291 295 295 294 294 287 282 282 281 281 290 292 292 294 292 293 293 293 293 294 294 295 295 295 295 295 296 300 306 310 312 313 314 314 316 320 322 321 322 318
295 289 284 285 289 292 293 294 296 292 286 285 279 283 289 287 289 291 291 292 292 293 294 294 294 295 295 295 295 295 296 296 297 298 301 304 306 308 311 315 316 316 316 314
297 290 289 285 288 292 290 292 294 293 287 286 286 285 286 287 288 289 291 292 292 294 294 293 294 294 294 294 295 295 295 296 297 298 298 298 299 301 303 305 306 306 306 306
296 285 290 289 290 292 291 292 293 291 291 286 290 288 291 288 288 290 292 292 291 293 294 295 294 294 294 294 295 295 295 295 296 297 297 297 296 298 299 298 298 296 296 298
297 285 288 284 289 292 289 292 293 293 293 292 291 290 296 294 289 288 290 291 291 294 295 295 293 293 294 293 294 294 294 294 295 295 295 295 294 293 293 292 292 292 291 291
293 289 285 283 285 288 284 290 292 293 295 294 289 294 292 289 290 291 290 291 294 294 294 293 293 292 293 293 294 294 294 293 293 291 290 290 290 290 289 288 288 288 288 289
293 289 288 283 285 278 287 295 296 294 295 297 296 296 296 294 294 294 293 294 293 294 293 292 292 292 293 293 293 292 291 290 288 288 288 287 288 287 286 286 286 285 286 288
295 289 283 281 282 281 284 286 292 291 291 297 296 295 294 294 292 292 293 294 294 293 292 292 292 292 291 290 290 288 286 286 287 286 287 287 286 282 284 281 281 286 285 285
295 294 286 279 281 278 287 287 296 295 286 297 298 298 291 292 290 292 292 291 291 291 290 290 290 290 289 288 288 286 285 285 284 285 285 285 283 280 279 280 280 284 284 284
287 286 283 284 282 281 286 288 297 285 287 296 298 298 296 293 297 293 291 289 289 288 288 287 287 285 285 286 285 284 283 283 283 283 282 280 280 278 278 277 277 281 284 283
284 283 282 282 280 280 287 292 288 293 290 288 296 299 297 298 290 290 289 287 287 287 285 284 283 282 282 284 284 282 282 281 279 280 279 277 275 279 277 275 273 274 278 283
281 289 285 286 286 287 293 292 296 290 290 288 291 296 299 298 288 288 286 285 285 284 284 283 281 280 279 278 281 281 280 278 278 277 274 273 274 275 274 273 272 273 271 273
286 288 285 286 286 286 289 288 290 288 288 288 288 290 294 291 288 285 284 283 283 281 280 279 278 276 275 274 276 276 278 277 276 275 274 273 275 274 272 276 275 272 271 271
285 287 283 282 284 285 286 288 290 289 287 287 286 286 289 289 286 285 283 282 281 280 278 277 277 275 273 272 271 271 274 274 276 275 274 273 273 271 272 273 273 275 274 275
281 280 286 284 286 288 289 290 289 288 287 286 285 284 284 288 285 284 281 281 279 277 276 274 273 272 269 268 268 267 268 272 274 274 273 272 272 270 271 271 272 282 283 285
Wind_Speed
10 9 10 14 6 2 6 4 6 3 5 6 9 12 11 11 4 8 8 8 12 15 15 12 14 13 10 12 14 14 14 13 8 5 5 4 7 4 4 5 8 8 8 8
4 18 11 8 5 5 3 6 5 5 3 6 7 13 11 8 8 9 13 11 12 12 9 12 12 12 13 15 15 14 14 14 12 9 4 4 4 4 6 6 7 9 8 8
17 5 9 13 10 9 8 6 5 5 2 4 2 10 5 9 8 10 11 14 10 15 16 14 14 15 14 16 18 17 17 16 14 14 4 2 2 1 3 4 6 8 9 10
15 13 18 14 19 15 15 10 4 3 3 4 4 8 5 7 17 11 17 13 16 13 11 14 16 14 18 19 16 17 16 16 14 15 11 12 9 10 9 9 6 7 9 10
18 21 21 18 21 17 8 11 8 3 3 0 4 4 7 4 7 12 12 17 16 17 14 14 16 19 17 16 15 14 15 14 13 13 16 11 12 9 4 4 6 7 8 11
7 6 12 12 10 14 7 7 5 4 2 10 9 8 9 8 9 9 7 11 13 13 12 13 14 16 14 13 12 13 14 15 15 15 16 15 16 13 6 6 8 8 8 8
18 13 6 11 10 4 7 13 4 6 6 12 5 9 17 7 11 8 10 10 10 10 10 10 11 10 11 12 14 12 15 16 16 17 17 18 18 16 16 14 12 11 9 8
16 9 18 16 16 15 24 18 7 10 6 7 2 11 9 14 22 10 8 8 7 8 8 9 10 10 12 15 16 15 15 17 16 18 20 19 17 12 13 13 11 11 11 12
14 15 17 9 5 16 17 19 8 7 3 4 6 8 9 11 11 9 13 9 9 8 6 6 7 9 11 10 13 15 15 16 14 16 13 14 13 14 13 14 11 11 11 9
4 7 13 6 5 1 21 13 7 1 7 5 6 6 9 7 15 9 8 11 9 7 5 4 1 2 5 6 6 6 8 12 12 11 11 11 13 14 14 11 14 13 12 9
9 4 4 6 16 22 8 17 6 7 5 6 2 9 9 14 17 11 10 8 8 9 8 5 3 3 3 4 5 6 6 6 6 6 8 8 9 10 11 12 11 13 10 8
18 7 11 22 2 5 10 15 18 10 13 4 3 8 3 10 5 7 8 8 7 7 8 6 5 3 3 3 2 2 3 6 7 6 6 6 4 4 6 9 12 9 11 8
20 5 7 8 3 3 21 13 24 9 5 16 6 8 3 5 5 7 11 8 7 7 7 4 3 3 3 2 2 3 4 6 5 4 6 5 6 6 8 8 7 6 7 7
9 7 17 20 33 20 28 31 26 22 12 14 19 6 4 4 6 6 7 8 9 8 8 5 4 5 5 4 4 4 4 5 4 5 5 6 6 5 4 4 4 5 4 5
11 6 18 7 7 15 22 25 26 25 30 14 28 13 11 10 12 14 11 7 8 8 8 8 7 6 4 3 4 4 5 4 3 3 3 4 2 2 1 1 1 2 2 2
15 4 5 4 7 20 18 27 25 27 24 25 18 16 13 10 5 5 11 10 9 9 9 8 6 6 5 4 4 3 3 3 2 2 1 1 2 2 4 5 5 3 2 1
22 16 12 15 4 9 13 29 33 33 28 34 22 32 7 10 17 18 14 13 11 8 8 8 7 4 0 2 1 0 0 2 3 3 3 3 4 3 4 3 3 4 4 3
28 23 14 9 12 19 8 21 32 35 31 28 29 16 18 12 17 11 9 13 10 10 9 7 5 4 2 1 3 4 5 6 6 5 4 3 4 3 3 3 4 3 2 3
21 12 6 9 15 2 8 11 35 28 32 28 30 17 14 8 7 10 9 9 11 9 7 7 6 4 5 5 5 7 6 6 6 5 4 3 2 2 2 2 2 2 2 2
30 23 7 3 12 18 10 10 17 12 22 26 34 30 12 11 13 11 11 8 9 8 7 8 7 5 6 3 6 8 7 6 6 5 4 4 4 4 3 3 2 2 2 1
14 11 15 13 9 8 7 12 22 17 22 21 29 32 25 22 16 9 11 7 7 8 9 8 7 6 4 5 6 8 7 7 3 4 5 5 5 4 3 3 2 2 2 3
9 8 6 4 3 16 10 24 28 20 4 2 18 25 28 25 10 14 12 14 14 13 10 8 10 6 3 5 7 7 7 3 4 6 6 5 4 3 3 4 2 2 3 2
7 15 12 14 11 1 26 10 12 3 6 6 8 15 27 21 10 16 13 13 12 11 10 8 10 9 5 4 3 9 3 3 5 6 5 3 4 4 3 5 3 2 2 3
1 5 6 6 8 6 16 2 2 2 5 6 5 7 15 17 17 12 14 13 12 10 10 8 10 8 6 4 6 4 5 5 6 7 5 3 4 3 3 2 4 5 2 3
4 7 6 3 1 3 3 8 8 5 3 6 5 4 11 18 14 19 14 12 12 11 7 7 9 9 7 4 6 5 5 3 7 6 5 5 4 3 3 3 1 2 1 5
6 4 7 5 2 5 7 11 5 9 7 9 8 7 5 13 20 15 13 11 12 12 9 9 8 10 6 6 6 4 5 4 6 6 4 3 3 3 3 3 4 8 8 7
Wind_Direction
155 238 215 195 182 197 162 169 185 221 224 177 222 246 246 259 248 257 247 218 221 218 222 212 213 200 182 196 198 195 194 199 187 187 190 199 195 193 211 203 193 196 196 193
148 237 218 167 165 189 230 202 229 294 267 186 263 255 242 251 239 218 236 232 219 226 218 206 212 211 190 192 202 195 199 198 196 197 194 194 170 200 208 211 206 205 200 200
203 224 177 176 185 187 214 201 184 213 210 198 334 269 219 249 241 246 238 238 213 212 211 209 205 207 202 196 197 198 199 197 201 198 160 127 110 71 182 213 216 214 205 205
211 213 184 189 196 189 211 168 200 208 191 222 137 280 252 236 241 242 242 230 232 211 218 214 202 204 206 209 197 197 198 199 199 195 193 204 207 210 214 214 213 209 206 212
196 182 194 199 201 179 219 164 173 138 170 222 197 260 269 222 246 245 234 228 227 228 207 205 203 205 207 204 199 193 194 199 196 193 203 205 215 218 200 200 201 208 208 214
202 188 184 202 182 183 147 83 72 83 134 241 199 207 232 204 212 247 240 236 228 230 210 217 210 205 208 202 196 196 188 198 194 194 199 204 213 211 193 200 208 208 211 207
191 194 150 152 152 124 165 155 178 212 203 247 205 208 249 232 238 227 246 253 245 226 225 201 205 199 199 194 199 195 195 199 195 196 199 204 208 204 206 206 210 207 208 211
199 201 190 185 191 184 192 172 164 187 194 231 97 234 249 226 236 223 233 237 263 247 220 223 208 208 206 202 203 199 200 205 199 200 206 207 207 210 216 217 213 218 217 218
196 212 183 196 182 158 189 200 155 92 32 88 220 283 298 263 253 228 219 232 239 247 222 217 226 204 204 197 200 199 201 212 204 210 214 216 215 215 219 222 218 224 226 226
263 179 195 224 130 296 185 169 164 41 154 223 252 267 233 227 233 233 209 209 211 214 193 193 157 191 213 200 186 193 212 213 210 205 206 209 209 214 220 214 220 220 227 216
211 252 180 163 202 186 153 189 189 147 165 185 196 252 212 203 221 209 211 205 191 184 184 178 131 98 112 127 168 193 204 213 211 208 216 216 215 211 216 222 219 222 222 209
188 235 181 197 164 237 206 198 188 188 211 229 161 269 226 232 243 182 183 183 180 176 168 150 129 119 106 110 122 197 211 212 214 207 207 216 221 221 226 226 230 215 219 204
190 228 177 165 289 360 200 201 202 196 91 215 157 248 345 353 191 192 165 172 176 173 170 156 143 165 181 201 207 211 218 228 229 218 226 235 229 216 219 222 217 206 203 201
186 196 226 198 198 182 191 197 194 196 211 213 226 227 276 286 211 172 171 182 180 185 188 188 185 193 202 213 221 237 252 224 217 204 212 222 224 227 237 245 229 224 207 191
182 240 217 243 178 193 208 201 193 200 221 202 238 222 226 216 211 198 181 173 179 204 203 201 190 190 186 216 246 254 253 242 214 213 211 236 230 223 194 173 93 51 15 320
192 187 242 248 209 192 190 198 200 212 213 228 220 240 197 204 162 202 197 182 192 202 206 200 191 173 186 211 236 256 255 264 166 178 201 59 63 25 11 19 20 27 50 72
204 199 183 224 245 169 203 195 200 209 212 218 211 227 169 190 189 201 202 191 191 191 185 181 175 162 112 343 333 154 200 105 90 74 47 38 41 41 40 55 51 34 19 18
197 195 194 195 138 211 222 204 208 209 212 214 232 227 207 197 197 198 201 184 189 182 172 157 142 149 124 40 65 86 76 81 85 69 65 60 69 67 51 45 42 37 23 6
214 171 157 176 192 281 253 212 195 187 220 213 228 212 200 174 123 232 186 182 178 167 154 149 149 135 107 89 93 91 69 74 76 58 52 49 82 113 95 74 45 33 42 40
191 191 187 166 184 207 233 161 185 170 261 216 218 218 173 147 201 213 177 146 135 131 129 132 120 107 103 88 118 108 101 89 66 50 59 60 70 88 90 107 83 72 89 61
185 170 192 194 192 271 231 148 133 153 238 217 209 208 188 196 202 139 131 119 126 131 136 126 107 105 104 122 119 102 102 83 83 89 83 75 67 84 82 95 62 87 86 96
162 153 164 145 167 258 171 147 165 207 112 211 200 194 197 203 133 143 145 145 145 139 136 126 114 107 92 110 112 103 91 116 110 96 86 79 72 79 90 102 65 62 96 114
150 192 175 187 207 154 177 160 202 95 160 175 176 195 199 184 153 147 149 151 147 147 143 126 126 119 70 43 81 120 136 114 102 89 86 86 79 66 84 96 79 58 91 132
240 188 166 111 212 196 202 254 227 212 188 144 159 155 157 157 149 140 145 142 140 144 138 136 123 116 102 35 60 76 118 119 105 98 84 59 58 49 61 93 136 122 89 3
182 150 152 278 211 50 268 218 176 135 83 93 78 151 151 137 149 142 144 146 147 137 137 127 130 123 110 88 67 26 36 79 95 83 68 58 64 50 26 28 21 358 258 162
357 1 202 207 198 165 208 206 144 127 168 159 146 101 76 149 145 143 140 144 141 139 135 122 113 119 124 109 95 62 31 74 106 100 89 83 79 47 48 21 10 37 44 42